STARLINK-11559, 62831

Orbit data source: Space-Track

STARLINK-11559, 62831 is a payload satellite owned by SpaceX/Seattle (US) in LEO that was launched on Mon, 27 Jan 2025 UTC via an FALCON 9 launch vehicle from the Air Force Eastern Test Range (AFETR). Payload-class satellites include a variety of spacecraft equipped with specific instruments for various scientific and technological missions. These include communications satellites like Starlink; space stations such as the ISS; scientific satellites like the Hubble; Earth observation satellites from companies like Planet Labs, Umbra, and HawkEye 360; GPS; miniature CubeSats for education and research; and military/defense satellites.

Loading next visibility...
Identifier
62831, 2025-019C
Orbit
LEO
Country
Flag of USUS
Related business
Manufacturer
SpaceX/Seattle
Mission
Operational Commercial Communications
Bus & Motor
STARLINK V2MD, Unknown motor
Mass
960 kg wet, ~910 kg dry
Launch date (UTC)
2025-01-27 (9 months ago)
Launch vehicle
FALCON 9
Launch site
Air Force Eastern Test Range (AFETR)
Object type
Payload
Rocket body
Debris
Shape & HBR
Box + 2 Pan, 18.1 m
Radar Cross Section
36.964 m², Large (>1 m²)

Expand to show TLE details & history
Last TLE update: 8 hours ago

TLE from 8 hours ago
0 STARLINK-11559
1 62831U 25019C   25303.20428279  .00273341  00000-0  20525-2 0  9990
2 62831  42.9987  12.9670 0000239 211.0965 148.9889 15.70976206 43359
Epoch: 2025-10-30T04:54Z
TLE epoch observation values (Epoch: 2025-10-30T04:54:10.033Z)
Latitude
0.00003°
Longitude
-99.34119°
Altitude
356.015 km
Speed
7.697 km/s
True Right ascension
00h 51m 52s
True Declination
0° 00' 00"
Sunlit
Object was in full shadow at epoch
Visualization orbit readout
Latitude
Unknown
Longitude
Unknown
Altitude
Unknown
Speed
Unknown
Apparent Right ascension
Unknown
Apparent Declination
Unknown
Sunlit
N/A
Visualization observer readout
Local Sidereal Time
08:55:09
Azimuth
Unknown
Elevation
Unknown
Doppler factor
Unknown
Orbital elements
Apogee altitude
358.249 km
Perigee altitude
357.927 km
Semi-major axis
6,736.225 km
Eccentricity
0.00002
Inclination
42.9987°
RAAN
12.967°
Arg. of periapsis
211.0965°
True anomaly
148.99031°
Mean anomaly
148.9889°
Eccentric anomaly
148.98961°
Mean motion
3.92571 °/min
Orbital period
91.7 mins
BSTAR
0.0020525
Loading maneuver chart data...
Computing Atmospheric mass density...
Loading historical data...
Loading historical data...
Loading historical data...
Loading historical data...
Loading historical data...
Loading historical data...
Loading historical data...

Documentation

Showing up to 5 results
|